Location: Çayba??
(36.6136°N, 29.7923°E)
Time: 20:46:39
(UTC+00:00)

Daily predictions for brighter satellites

Satellite Brightness Start Highest point End
(mag) Time Altitude Azimuth Time Altitude Azimuth Time Altitude Azimuth
Spot 4 Rocket 4.0 15:28:27 10° SSE 15:33:30 66° ENE 15:38:36 10° N
PSLV R/B 3.4 15:31:09 10° SSE 15:35:08 59° ENE 15:39:08 10° N
Cosmos 2034 Rocket 4.4 15:29:17 10° N 15:35:25 72° W 15:41:33 10° S
Meteor 2-17 Rocket 4.5 15:33:20 10° S 15:39:19 62° E 15:45:17 10° NNE
Cosmos 1933 Rocket 3.9 15:35:00 10° NNW 15:39:24 72° W 15:43:48 10° S
Cosmos 1869 Rocket 3.5 15:37:24 10° N 15:41:50 71° E 15:46:15 10° SSE
ASTEX 1 4.4 15:37:33 10° S 15:42:16 52° W 15:47:00 10° NNW
Meteor 1-21 4.2 15:40:40 10° S 15:46:15 81° E 15:51:53 10° N
Cosmos 1707 Rocket 4.0 15:43:28 10° SSE 15:47:36 40° E 15:51:45 10° NNE
SMAP 3.6 15:43:58 10° S 15:48:34 65° W 15:53:12 10° NNW
Meteor 1-12 Rocket 4.2 15:43:21 10° N 15:49:04 73° E 15:54:53 10° SSE
Cosmos 2237 Rocket 2.5 15:44:38 10° S 15:50:01 46° ESE 15:55:26 10° NE
SJ-7 4.2 15:48:08 10° SSE 15:51:54 86° ENE 15:55:42 10° N
Cosmos 1763 Rocket 3.5 15:46:59 10° SSW 15:52:13 89° WNW 15:57:26 10° NNE
Cosmos 468 Rocket 4.1 15:51:17 10° S 15:56:23 58° ESE 16:01:28 10° NNE
ATLAS CENTAUR R/B 1.8 15:53:03 10° NW 15:57:06 64° WSW 16:01:07 10° SSE
ARGOS Delta rocket 4.3 15:56:53 10° S 16:01:42 67° W 16:06:18 10° NNW
BREEZE-M TANK 3.5 15:59:00 10° NW 16:02:29 41° NNE 16:07:55 12° E
Cosmos 2278 Rocket 2.6 15:59:10 10° N 16:04:28 39° ENE 16:09:42 10° SE
Cosmos 1943 Rocket 2.9 15:59:47 10° N 16:04:42 30° ENE 16:09:34 10° ESE
Cosmos 1862 Rocket 3.6 16:00:42 10° S 16:04:56 57° E 16:09:14 10° NNE
Cosmos 2219 Rocket 4.5 16:02:30 10° WSW 16:06:29 20° NW 16:10:31 10° N
Cosmos 540 Rocket 3.5 16:02:02 10° SSW 16:07:10 84° WNW 16:12:18 10° NNE
Cosmos 841 Rocket 4.2 16:03:31 10° SSE 16:08:10 33° E 16:12:12 13° NE
COSMO-SKYMED 1 2.5 16:05:07 10° NNE 16:09:29 89° ESE 16:13:49 10° SSW
Delta 2 Rocket 3.7 16:06:36 10° SW 16:09:32 34° SSE 16:11:18 19° ESE
Meteor 1-31 Rocket 3.1 16:06:42 10° SE 16:09:58 34° ENE 16:13:14 10° N
BREEZE-M DEB (TANK) 3.8 16:12:57 10° NW 16:14:02 12° N 16:15:15 10° NNE
ISS -3.2 16:14:01 10° WSW 16:17:18 53° NW 16:19:16 21° NNE
Lacrosse 5 rocket 3.3 16:14:43 10° WNW 16:18:21 31° WSW 16:21:56 10° S
YAOGAN 11 4.5 16:15:05 13° NNE 16:18:33 39° E 16:22:33 10° SSE
Cosmos 2279 Rocket 3.9 16:13:00 10° N 16:19:13 87° E 16:25:24 10° S
Cosmos 2228 Rocket 3.1 16:15:10 10° S 16:19:40 85° W 16:24:13 10° N
Cosmos 1455 3.9 16:23:21 10° NNW 16:26:11 29° W 16:29:00 10° SSW
YAOGAN 1 2.6 16:22:58 10° SSE 16:27:06 50° ENE 16:31:14 10° N
ACS3 Solar Sail 1.8 16:25:26 10° SSE 16:31:44 69° ENE 16:38:06 10° N
ATLAS 2AS CENTAUR R/B 4.0 16:27:56 10° N 16:32:14 17° NE 16:32:29 17° NE
Cosmos 1703 Rocket 4.1 16:29:20 10° SSE 16:33:22 35° E 16:34:03 33° ENE
Okean 3 4.4 16:30:41 10° SSW 16:34:36 46° W 16:38:33 10° N
Cosmos 1733 Rocket 3.1 16:30:17 10° N 16:34:41 81° W 16:39:05 10° S
Resurs 1-3 4.0 16:30:51 10° SE 16:34:47 36° ENE 16:38:44 10° N
Cosmos 1092 Rocket 4.5 16:30:55 10° SSE 16:36:23 35° E 16:39:36 21° NE
SL-16 R/B 2.9 16:32:11 10° SSE 16:37:05 31° ESE 16:37:56 30° E
Cosmos 1980 4.2 16:33:44 10° SSW 16:39:18 61° WNW 16:44:53 10° NNE
EO 1 Delta rocket 4.1 16:35:42 10° N 16:40:21 68° WNW 16:45:00 10° SSW
Cosmos 990 Rocket 4.3 16:38:10 10° NNW 16:43:22 68° WSW 16:48:33 10° S
Cosmos 372 Rocket 4.0 16:44:31 10° N 16:49:27 50° ENE 16:51:39 30° SE
NOAA 6 4.4 16:53:58 10° S 16:58:59 64° WSW 17:04:04 10° NNW
Cosmos 1937 Rocket 4.0 16:54:20 10° N 16:58:05 38° NNE 16:58:05 38° NNE
Centaur D-1A AC-31 4.0 17:01:07 10° SSW 17:06:26 31° SE 17:10:14 27° ESE
Lacrosse 5 3.6 17:02:10 10° WNW 17:06:42 33° WSW 17:11:12 10° S
Cosmos 1953 4.4 17:04:55 10° NNW 17:08:02 26° W 17:11:08 10° SSW
Cosmos 2026 Rocket 3.9 17:03:01 10° S 17:09:19 72° E 17:14:30 16° NNE
DNEPR-1 R/B 4.3 17:05:20 10° NNW 17:08:31 40° N 17:08:31 40° N
SPOT 1/Viking Rocket 3.5 17:07:30 10° SSE 17:12:41 84° WSW 17:17:51 10° NNW
Cosmos 1932 4.3 17:10:49 10° SSW 17:17:00 83° ESE 17:18:26 56° NE
Meteor 2-12 Rocket 4.4 17:12:32 10° S 17:18:36 80° W 17:24:42 10° N
CZ-4C R/B 2.9 17:14:58 10° WSW 17:18:53 37° NW 17:20:19 30° NNW
BREEZE-M DEB 3.3 17:17:00 10° WSW 17:19:10 61° W 17:19:10 61° W
Cosmos 1174 4.3 17:16:36 10° NW 17:20:11 64° W 17:20:11 64° W
Aureole 1 Rocket 4.4 17:14:28 10° NNW 17:22:04 73° WSW 17:28:40 10° S
RESURS DK-1 3.9 17:18:39 10° NNW 17:20:38 28° NW 17:20:38 28° NW
ATLAS 5 CENTAUR R/B 3.1 17:20:01 10° SW 17:21:23 23° WSW 17:21:23 23° WSW
Cosmos 2237 Rocket 4.2 17:29:47 10° WSW 17:34:16 23° WNW 17:38:43 10° N
Meteor 1-24 Rocket 4.4 17:36:05 10° S 17:40:01 46° S 17:40:01 46° S
Cosmos 2278 Rocket 4.2 17:43:41 10° NW 17:48:15 26° WSW 17:52:47 10° SSW
Cosmos 1943 Rocket 3.7 17:43:21 10° NW 17:48:23 34° WSW 17:53:22 10° SSW
Cosmos 839 Rocket 4.3 17:53:15 10° SW 17:59:32 66° W 17:59:32 66° W
ACS3 Solar Sail 4.4 18:11:53 10° SW 18:15:45 17° W 18:19:39 10° NW
SL-16 R/B 3.8 18:16:01 10° SW 18:19:53 30° W 18:19:53 30° W
ATLAS 2AS CENTAUR R/B 4.2 18:17:26 10° NNW 18:19:57 24° NNW 18:19:57 24° NNW
